STARLINK-31970, 59928

Orbit data source: Space-Track

STARLINK-31970, 59928 is a payload satellite owned by SpaceX/Seattle (US) in LEO that was launched on Sat, 01 Jun 2024 UTC via an FALCON 9 launch vehicle from the Air Force Eastern Test Range (AFETR). Payload-class satellites include a variety of spacecraft equipped with specific instruments for various scientific and technological missions. These include communications satellites like Starlink; space stations such as the ISS; scientific satellites like the Hubble; Earth observation satellites from companies like Planet Labs, Umbra, and HawkEye 360; GPS; miniature CubeSats for education and research; and military/defense satellites.

Loading next visibility...
Identifier
59928, 2024-106G
Orbit
LEO
Country
Flag of USUS
Related business
Manufacturer
SpaceX/Seattle
Mission
Operational Commercial Communications
Bus & Motor
STARLINK V2M, Unknown motor
Mass
730 kg wet, ~700 kg dry
Launch date (UTC)
2024-06-01 (1 year ago)
Launch vehicle
FALCON 9
Launch site
Air Force Eastern Test Range (AFETR)
Object type
Payload
Rocket body
Debris
Shape & HBR
Box + 2 Pan, 17.7 m
Radar Cross Section
33.884 m², Large (>1 m²)

Expand to show TLE details & history
Last TLE update: 1 day ago

TLE from 1 day ago
0 STARLINK-31970
1 59928U 24106G   25312.66859943 -.00000024  00000-0  86590-5 0  9999
2 59928  43.0028 296.0348 0001311 270.9214  89.1487 15.27583167 82063
Epoch: 2025-11-08T16:02Z
TLE epoch observation values (Epoch: 2025-11-08T16:02:46.990Z)
Latitude
-0.00006°
Longitude
7.24404°
Altitude
482.802 km
Speed
7.626 km/s
True Right ascension
19h 44m 08s
True Declination
0° 00' 00"
Sunlit
Object was in daylight at epoch
Visualization orbit readout
Latitude
Unknown
Longitude
Unknown
Altitude
Unknown
Speed
Unknown
Apparent Right ascension
Unknown
Apparent Declination
Unknown
Sunlit
N/A
Visualization observer readout
Local Sidereal Time
19:21:45
Azimuth
Unknown
Elevation
Unknown
Doppler factor
Unknown
Orbital elements
Apogee altitude
485.884 km
Perigee altitude
484.085 km
Semi-major axis
6,863.121 km
Eccentricity
0.00013
Inclination
43.0028°
RAAN
296.0348°
Arg. of periapsis
270.9214°
True anomaly
89.16372°
Mean anomaly
89.1487°
Eccentric anomaly
89.15621°
Mean motion
3.81734 °/min
Orbital period
94.31 mins
BSTAR
0.000008659
Loading maneuver chart data...
Computing Atmospheric mass density...
Loading historical data...
Loading historical data...
Loading historical data...
Loading historical data...
Loading historical data...
Loading historical data...
Loading historical data...

Documentation

Showing up to 5 results
|